Clinton, MO

5:33 PM CST on February 27, 2017 (GMT -0600)
Clinton Memorial

Weather History for KGLY - February, 2013

Change the Weather History Date:

Wednesday, February 20, 2013

  Actual Average (KSZL) Record (KSZL)
Temperature  
Mean Temperature 26 °F -  
Max Temperature 30 °F 44 °F 73 °F (2016)
Min Temperature 21 °F 28 °F 9 °F (2008)
Degree Days  
Heating Degree Days 40    
Moisture  
Dew Point 13 °F    
Average Humidity 57    
Maximum Humidity 64    
Minimum Humidity 51    
Precipitation  
Precipitation 0.00 in - - ()
Sea Level Pressure  
Sea Level Pressure 30.29 in    
Wind  
Wind Speed 7 mph (ENE)    
Max Wind Speed 13 mph    
Max Gust Speed -    
Visibility 10 miles    
Events      
Averages and records for this station are not official NWS values.
T = Trace of Precipitation, MM = Missing Value Source: NWS Daily Summary

Daily Weather History Graph

Daily Weather History Graph

Search for Another Location

Airport or City:

Trip Planner

Search our weather history database for the weather conditions in past years. The results will help you decide how hot, cold, wet, or windy it might be!

Date:

Astronomy

Feb. 20, 2013 Rise Set
Actual Time 6:58 AM CST 5:58 PM CST
Civil Twilight 6:31 AM CST 6:25 PM CST
Nautical Twilight 6:00 AM CST 6:56 PM CST
Astronomical Twilight 5:30 AM CST 7:27 PM CST
Moon 1:23 PM CST (2/20) 3:16 AM CST (2/20)
Length of Visible Light 11h 53m
Length of Day
11h 00m
Waxing Gibbous, 76% of the Moon is Illuminated
Feb 20
Waxing Gibbous
Feb 25
Full
Mar 4
Last Quarter
Mar 11
New
Mar 19
First Quarter

Hourly Weather History & Observations

Time (CST) Temp. Windchill Dew Point Humidity Pressure Visibility Wind Dir Wind Speed Gust Speed Precip Events Conditions
12:15 AM 26.6 °F 19.1 °F 12.2 °F 55% 30.34 in 10.0 mi NNE 6.9 mph - N/A   Clear
12:35 AM 26.6 °F 18.2 °F 12.2 °F 55% 30.34 in 10.0 mi NNE 8.1 mph - N/A   Clear
12:55 AM 26.6 °F 18.2 °F 10.4 °F 51% 30.34 in 10.0 mi NNE 8.1 mph - N/A   Clear
1:15 AM 24.8 °F 16.9 °F 10.4 °F 54% 30.35 in 10.0 mi North 6.9 mph - N/A   Clear
1:35 AM 24.8 °F 16.9 °F 12.2 °F 59% 30.35 in 10.0 mi North 6.9 mph - N/A   Clear
1:55 AM 23.0 °F 13.9 °F 10.4 °F 59% 30.35 in 10.0 mi North 8.1 mph - N/A   Clear
2:15 AM 23.0 °F 14.7 °F 10.4 °F 59% 30.35 in 10.0 mi North 6.9 mph - N/A   Clear
2:55 AM 23.0 °F 14.7 °F 10.4 °F 59% 30.33 in 10.0 mi NNE 6.9 mph - N/A   Clear
3:15 AM 23.0 °F 17.0 °F 8.6 °F 54% 30.34 in 10.0 mi NE 4.6 mph - N/A   Clear
3:35 AM 23.0 °F 17.0 °F 10.4 °F 59% 30.34 in 10.0 mi NE 4.6 mph - N/A   Clear
3:55 AM 23.0 °F 14.7 °F 8.6 °F 54% 30.33 in 10.0 mi NE 6.9 mph - N/A   Clear
4:15 AM 23.0 °F 14.7 °F 8.6 °F 54% 30.32 in 10.0 mi NE 6.9 mph - N/A   Clear
4:35 AM 23.0 °F 17.0 °F 8.6 °F 54% 30.33 in 10.0 mi NNE 4.6 mph - N/A   Clear
4:55 AM 21.2 °F 11.7 °F 8.6 °F 58% 30.33 in 10.0 mi NE 8.1 mph - N/A   Clear
5:15 AM 21.2 °F 10.9 °F 8.6 °F 58% 30.32 in 10.0 mi NE 9.2 mph - N/A   Clear
5:35 AM 21.2 °F 12.6 °F 8.6 °F 58% 30.31 in 10.0 mi NE 6.9 mph - N/A   Clear
5:55 AM 21.2 °F 16.4 °F 10.4 °F 63% 30.31 in 10.0 mi ENE 3.5 mph - N/A   Clear
6:15 AM 21.2 °F - 8.6 °F 58% 30.33 in 10.0 mi Calm Calm - N/A   Clear
6:35 AM 21.2 °F - 10.4 °F 63% 30.35 in 10.0 mi Calm Calm - N/A   Clear
7:15 AM 21.2 °F 13.6 °F 10.4 °F 63% 30.36 in 10.0 mi NE 5.8 mph - N/A   Clear
7:35 AM 23.0 °F 14.7 °F 10.4 °F 59% 30.37 in 10.0 mi ENE 6.9 mph - N/A   Clear
7:55 AM 23.0 °F 14.7 °F 10.4 °F 59% 30.37 in 10.0 mi ENE 6.9 mph - N/A   Clear
8:35 AM 23.0 °F 13.1 °F 10.4 °F 59% 30.36 in 10.0 mi NE 9.2 mph - N/A   Clear
8:55 AM 23.0 °F 13.1 °F 10.4 °F 59% 30.37 in 10.0 mi East 9.2 mph - N/A   Clear
9:15 AM 23.0 °F 13.1 °F 10.4 °F 59% 30.36 in 10.0 mi ENE 9.2 mph - N/A   Clear
9:35 AM 23.0 °F 14.7 °F 12.2 °F 63% 30.37 in 10.0 mi ENE 6.9 mph - N/A   Clear
9:55 AM 23.0 °F 15.8 °F 12.2 °F 63% 30.38 in 10.0 mi East 5.8 mph - N/A   Clear
10:15 AM 24.8 °F 16.9 °F 12.2 °F 59% 30.38 in 10.0 mi ENE 6.9 mph - N/A   Clear
10:35 AM 24.8 °F 17.9 °F 12.2 °F 59% 30.39 in 10.0 mi NE 5.8 mph - N/A   Clear
10:55 AM 24.8 °F - 12.2 °F 59% 30.39 in 10.0 mi Calm Calm - N/A   Clear
11:15 AM 26.6 °F 21.2 °F 12.2 °F 55% 30.38 in 10.0 mi NNE 4.6 mph - N/A   Clear
11:35 AM 26.6 °F - 12.2 °F 55% 30.37 in 10.0 mi Calm Calm - N/A   Clear
11:55 AM 26.6 °F 21.2 °F 12.2 °F 55% 30.36 in 10.0 mi ENE 4.6 mph - N/A   Clear
12:15 PM 26.6 °F 21.2 °F 12.2 °F 55% 30.35 in 10.0 mi ENE 4.6 mph - N/A   Clear
12:35 PM 26.6 °F 19.1 °F 12.2 °F 55% 30.34 in 10.0 mi East 6.9 mph - N/A   Clear
12:55 PM 28.4 °F 22.2 °F 12.2 °F 51% 30.34 in 10.0 mi ENE 5.8 mph - N/A   Clear
1:15 PM 28.4 °F 20.4 °F 14.0 °F 55% 30.32 in 10.0 mi ENE 8.1 mph - N/A   Clear
1:35 PM 28.4 °F 19.1 °F 14.0 °F 55% 30.29 in 9.0 mi NE 10.4 mph - N/A   Clear
1:55 PM 28.4 °F 19.1 °F 14.0 °F 55% 30.28 in 10.0 mi ENE 10.4 mph - N/A   Clear
2:15 PM 28.4 °F 19.1 °F 14.0 °F 55% 30.26 in 10.0 mi ENE 10.4 mph - N/A   Clear
2:35 PM 30.2 °F 20.2 °F 14.0 °F 51% 30.26 in 10.0 mi ENE 12.7 mph - N/A   Clear
2:55 PM 30.2 °F 20.8 °F 14.0 °F 51% 30.25 in 10.0 mi NE 11.5 mph - N/A   Clear
3:15 PM 30.2 °F 20.8 °F 14.0 °F 51% 30.25 in 10.0 mi NE 11.5 mph - N/A   Clear
3:35 PM 30.2 °F 20.8 °F 14.0 °F 51% 30.24 in 10.0 mi ENE 11.5 mph - N/A   Partly Cloudy
3:55 PM 30.2 °F 20.8 °F 14.0 °F 51% 30.25 in 10.0 mi ENE 11.5 mph - N/A   Scattered Clouds
4:15 PM 30.2 °F 21.9 °F 14.0 °F 51% 30.23 in 10.0 mi ENE 9.2 mph - N/A   Scattered Clouds
4:35 PM 30.2 °F 20.8 °F 15.8 °F 55% 30.23 in 9.0 mi ENE 11.5 mph - N/A   Mostly Cloudy
4:55 PM 30.2 °F 22.6 °F 14.0 °F 51% 30.22 in 10.0 mi ENE 8.1 mph - N/A   Overcast
5:15 PM 30.2 °F 21.3 °F 14.0 °F 51% 30.22 in 10.0 mi ENE 10.4 mph - N/A   Overcast
5:35 PM 30.2 °F 22.6 °F 15.8 °F 55% 30.22 in 10.0 mi ENE 8.1 mph - N/A   Overcast
5:55 PM 30.2 °F 21.9 °F 15.8 °F 55% 30.22 in 10.0 mi ENE 9.2 mph - N/A   Overcast
6:15 PM 30.2 °F 22.6 °F 15.8 °F 55% 30.22 in 10.0 mi ENE 8.1 mph - N/A   Overcast
6:35 PM 30.2 °F 22.6 °F 17.6 °F 60% 30.22 in 10.0 mi East 8.1 mph - N/A   Overcast
7:15 PM 30.2 °F 21.3 °F 14.0 °F 51% 30.20 in 10.0 mi ENE 10.4 mph - N/A   Overcast
7:35 PM 30.2 °F 21.3 °F 15.8 °F 55% 30.21 in 10.0 mi East 10.4 mph - N/A   Overcast
7:55 PM 30.2 °F 21.9 °F 15.8 °F 55% 30.20 in 10.0 mi East 9.2 mph - N/A   Overcast
8:15 PM 30.2 °F 21.3 °F 17.6 °F 60% 30.20 in 10.0 mi ENE 10.4 mph - N/A   Mostly Cloudy
8:35 PM 28.4 °F 20.4 °F 17.6 °F 64% 30.20 in 10.0 mi ENE 8.1 mph - N/A   Scattered Clouds
8:55 PM 30.2 °F 21.3 °F 17.6 °F 60% 30.20 in 10.0 mi ENE 10.4 mph - N/A   Mostly Cloudy
9:15 PM 30.2 °F 22.6 °F 17.6 °F 60% 30.21 in 10.0 mi East 8.1 mph - N/A   Overcast
9:35 PM 30.2 °F 21.3 °F 17.6 °F 60% 30.21 in 10.0 mi East 10.4 mph - N/A   Overcast
9:55 PM 30.2 °F 21.3 °F 15.8 °F 55% 30.20 in 10.0 mi East 10.4 mph - N/A   Overcast
10:15 PM 30.2 °F 21.9 °F 17.6 °F 60% 30.20 in 10.0 mi ENE 9.2 mph - N/A   Overcast
10:35 PM 30.2 °F 21.3 °F 17.6 °F 60% 30.21 in 10.0 mi East 10.4 mph - N/A   Overcast
10:55 PM 30.2 °F 20.8 °F 17.6 °F 60% 30.20 in 10.0 mi East 11.5 mph - N/A   Overcast
11:15 PM 30.2 °F 20.8 °F 17.6 °F 60% 30.19 in 10.0 mi East 11.5 mph - N/A   Overcast
11:35 PM 30.2 °F 20.2 °F 17.6 °F 60% 30.19 in 10.0 mi ENE 12.7 mph - N/A   Overcast